Location: Chandolas
(44.4033°N, 4.2533°E)
Time: 17:21:53
(UTC+00:00)

Cosmos 2016 Rocket - Pass Details

Date: 15 November 2019
Orbit: 947 x 1000 km, 83.0° (Epoch: 06 December)

Event Time Altitude Azimuth Distance (km) Brightness Sun altitude
Rises 05:14:47 0° 184° (S) 3,644 7.1 -15.0°
Reaches altitude 10° 05:17:15 10° 183° (S) 2,709 6.4 -14.6°
Maximum altitude 05:23:29 85° 96° (E) 992 4.1 -13.5°
Drops below altitude 10° 05:29:50 10° 9° (N) 2,762 6.3 -12.4°
Sets 05:32:23 0° 9° (N) 3,721 7.0 -11.9°
